Location: *
(40.3639°N, 49.8338°E)
Time: 05:45:40
(UTC+00:00)

Daily predictions for brighter satellites

Satellite Brightness Start Highest point End
(mag) Time Altitude Azimuth Time Altitude Azimuth Time Altitude Azimuth
CZ-2D R/B 4.2 00:02:22 10° NNW 00:04:27 14° NW 00:04:27 14° NW
STARLINK-1045 3.6 00:05:33 75° ESE 00:05:33 75° ESE 00:09:34 10° NE
SAR-Lupe-1 4.4 00:05:41 63° E 00:05:48 64° ENE 00:09:22 10° N
Meteor 1-4 Rocket 4.2 00:05:28 24° SE 00:07:01 34° E 00:10:27 10° NNE
Cosmos 389 Rocket 2.9 00:09:19 58° N 00:09:19 58° N 00:12:13 10° N
USA 267 3.3 00:02:32 10° NE 00:09:02 68° NW 00:11:31 40° WSW
ATLAS 3B R/B 2.9 00:06:04 30° S 00:09:25 61° ESE 00:15:57 10° NE
STARLINK-1050 3.5 00:10:20 83° S 00:10:25 84° SE 00:14:34 10° NE
deb Chang Zheng 4 3.6 00:09:03 10° NNE 00:13:23 75° ESE 00:14:40 45° S
STARLINK-1055 3.4 00:15:07 78° WSW 00:15:24 89° NW 00:19:33 10° NE
Okean 3 3.3 00:17:16 64° SSW 00:17:51 81° W 00:22:02 10° N
Meteor 1-19 Rocket 4.3 00:17:17 45° WSW 00:18:32 54° WNW 00:23:57 10° N
Cosmos 2237 Rocket 3.8 00:15:09 10° NW 00:17:06 19° WNW 00:17:06 19° WNW
STARLINK-1022 3.4 00:19:55 68° WSW 00:20:23 81° NW 00:24:32 10° NE
ATLAS 5 CENTAUR R/B 3.6 00:19:42 10° NNW 00:25:14 44° NE 00:31:33 10° ESE
STARLINK-1042 3.5 00:24:42 59° W 00:25:21 74° NW 00:29:31 10° NE
Cosmos 494 Rocket 3.9 00:21:24 10° NNW 00:26:41 78° WSW 00:31:55 10° SSE
Cosmos 1818 3.9 00:22:40 10° NNW 00:28:07 69° ENE 00:33:30 10° SE
Cosmos 2263 Rocket 3.4 00:23:59 10° S 00:29:11 39° ESE 00:34:27 10° NE
STARLINK-1056 3.6 00:29:28 51° W 00:30:20 68° NW 00:34:29 10° NE
Cosmos 2221 Rocket 3.6 00:30:26 44° SW 00:31:27 55° W 00:35:49 10° N
Cosmos 1300 Rocket 3.4 00:28:12 10° N 00:32:32 87° W 00:36:51 10° S
Cosmos 1544 4.1 00:30:10 10° NNW 00:32:32 31° NW 00:32:32 31° NW
ATLAS 5 CENTAUR R/B 3.0 00:29:59 16° SSW 00:33:57 38° SE 00:36:31 10° ENE
STARLINK-1054 3.7 00:34:14 44° W 00:35:18 62° NW 00:39:26 10° NE
Cosmos 1092 Rocket 4.4 00:30:11 10° S 00:36:26 66° E 00:42:42 10° NNE
Cosmos 2297 Rocket 3.6 00:36:37 20° WNW 00:37:58 22° NW 00:42:17 10° N
Cosmos 1867 3.9 00:35:43 20° SSW 00:39:31 65° ESE 00:44:56 10° NE
STARLINK-1062 3.8 00:39:01 38° W 00:40:17 57° NW 00:44:24 10° NE
USA 234 3.7 00:35:30 10° ESE 00:41:56 63° NE 00:48:23 10° NW
Okean 2 Rocket 3.2 00:37:31 10° NNW 00:41:57 55° W 00:45:39 14° S
Sich 1 Rocket 4.3 00:39:10 10° NNW 00:43:02 31° W 00:43:06 31° W
Cosmos 2151 Rocket 3.4 00:39:00 10° N 00:43:25 81° W 00:47:48 10° S
STARLINK-1053 4.0 00:43:49 34° W 00:45:18 53° NW 00:49:23 10° NE
PSLV R/B 3.5 00:40:57 10° N 00:45:20 79° WNW 00:48:36 18° SSW
Cosmos 1975 4.4 00:42:53 10° NW 00:44:56 20° WNW 00:44:56 20° WNW
Meteor 2-4 Rocket 4.0 00:43:25 23° SW 00:46:58 51° WNW 00:52:42 10° N
Cosmos 1269 Rocket 3.9 00:41:55 10° NNW 00:47:14 74° WSW 00:52:30 10° S
Cosmos 1378 Rocket 3.9 00:43:36 10° S 00:47:53 66° E 00:52:14 10° NNE
Cosmos 1689 Rocket 2.6 00:46:53 10° SSE 00:49:51 61° ENE 00:52:49 10° N
STARLINK-1061 4.1 00:48:34 30° W 00:50:16 48° NNW 00:54:18 10° NE
Nadezhda 4 Rocket 4.0 00:44:52 14° SSW 00:50:21 61° W 00:56:39 10° N
Shenzhou-11 Module 4.1 00:50:37 12° SSE 00:51:18 13° SE 00:52:36 10° ESE
COBE Rocket 4.3 00:49:14 20° SSW 00:51:58 36° W 00:56:19 10° NNW
Cosmos 1356 3.4 00:48:39 10° NNW 00:52:01 54° W 00:54:54 13° S
STARLINK-1067 4.2 00:53:23 26° W 00:55:18 45° NNW 00:59:17 10° NE
BREEZE M DEB (TANK) 3.6 00:54:56 20° NW 00:55:52 26° N 00:59:02 10° NE
CZ-2C R/B 4.1 00:53:08 10° NNW 00:56:18 23° WNW 00:56:57 22° W
Geosat 3.9 00:54:04 10° NNE 00:59:06 77° WNW 01:03:30 14° SSW
STARLINK-1058 4.3 00:58:08 23° W 01:00:16 42° NNW 01:04:13 10° NE
CENTAUR R/B 3.3 00:59:00 20° W 01:02:44 38° NW 01:09:11 10° NNE
Meteor 1-31 Rocket 4.0 00:59:59 10° NNE 01:03:46 44° E 01:07:30 10° S
Cosmos 2227 Rocket 4.0 01:02:32 13° WNW 01:04:52 16° NW 01:08:12 10° NNW
STARLINK-1043 4.4 01:02:56 20° W 01:05:17 39° NNW 01:09:12 10° NE
MSX 4.1 01:00:22 10° N 01:05:54 49° WNW 01:11:20 10° SW
STARLINK-1065 4.5 01:03:33 20° W 01:05:56 38° NNW 01:09:49 10° NE
Cosmos 2227 4.1 01:00:53 10° SSW 01:06:29 82° WNW 01:12:08 10° NNE
ALOS 4.0 01:09:17 10° NNE 01:13:34 34° E 01:17:48 10° SSE
Cosmos 1943 3.8 01:09:54 10° NNW 01:15:35 63° ENE 01:21:13 10° SE
H-2A R/B 3.4 01:16:12 10° NNE 01:20:06 46° E 01:23:51 10° S
IDEFIX/ARIANE 42P 3.8 01:17:28 10° NNW 01:21:26 23° WNW 01:24:50 12° WSW
Okean 1 Rocket 3.1 01:24:10 10° NNW 01:28:29 58° W 01:32:46 10° S
Lacrosse 5 4.4 01:27:22 10° SSE 01:30:41 18° ESE 01:34:00 10° ENE
Cosmos 1975 Rocket 3.5 01:26:56 10° S 01:31:14 67° E 01:35:35 10° NNE
CZ-2C R/B 2.7 01:28:13 10° N 01:32:31 42° WNW 01:36:50 10° SW
Okean 2 3.8 01:28:51 10° S 01:32:55 68° E 01:37:01 10° NNE
Cosmos 1766 3.8 01:29:20 10° N 01:33:12 62° E 01:37:01 10° SSE
CZ-4B R/B 3.2 01:32:08 10° SW 01:34:10 15° W 01:36:13 10° WNW
CZ-4B R/B 3.7 01:35:40 10° N 01:39:31 64° WNW 01:43:12 10° SSW
Gbstr 26 Del rocket 3.7 01:33:35 10° SW 01:39:52 84° NW 01:44:53 10° NE
SL-16 R/B 3.6 01:36:55 10° WNW 01:40:20 17° W 01:43:45 10° SW
Meteor 1-4 Rocket 4.5 01:40:02 10° WSW 01:42:10 14° WNW 01:44:18 10° NW
CRYOSAT 2 4.4 01:38:46 10° N 01:43:39 89° W 01:48:30 10° S
COSMO-SKYMED 1 3.3 01:39:37 10° SSE 01:43:53 60° ENE 01:48:10 10° N
ADEOS 4.4 01:40:36 10° N 01:45:13 33° WNW 01:49:49 10° SW
PSLV R/B 4.3 01:41:42 10° S 01:45:44 46° W 01:49:48 10° NNW
STARLINK-43 3.5 01:42:35 10° WNW 01:46:11 50° SW 01:49:46 10° SSE
Cosmos 1844 Rocket 4.3 01:46:06 10° S 01:51:16 39° ESE 01:56:31 10° NE
